[[{"header":{"parameterUnit":"m.s-1","parameterCategory":1,"la1":30.2991,"la2":30.254,"lo1":-89.0895,"lo2":-89.0444,"dy":0.0017,"dx":0.0017,"nx":28,"ny":28,"refTime":"2024-07-27T21:00:00:Z","depth":0,"parameterNumber":2,"parameterNumberName":"U-component_of_WINDS"},"data":[0,0,0,0,0,0,0,0,0,0,0,0,0,0,0,0,0,0,0,0,0,0,0,0,0,0,0,0,0,0,0,0,0,0,0,0,0,0,0,0,0,0,0,0,0,0,0,0,0,0,0,0,0,0,0,0,0,0,0.5108,0.511,0,0.5258,0.526,0.5262,0.5308,0.5307,0.5306,0.5306,0.5469,0.5474,0.5479,0,0,0,0,0,0,0,0,0,0,0,0,0,0.4872,0.4876,0.5108,0.511,0.5112,0.5258,0.526,0.5262,0.5308,0.5307,0.5306,0.5305,0.5468,0.5474,0.548,0,0,0,0,0,0,0,0,0,0,0,0,0,0.4994,0.4878,0.5108,0.5152,0.5158,0.5257,0.526,0.5263,0.5308,0.5307,0.5306,0.5305,0.5466,0.5473,0.5481,0.555,0,0,0.5504,0.5507,0,0,0,0,0,0,0,0,0.4987,0.5002,0.5144,0.5149,0.5156,0.5263,0.5237,0.5359,0.5308,0.5251,0.5306,0.5304,0.5402,0.5415,0.5446,0.5558,0.5565,0.5504,0.5509,0.5512,0.5515,0,0,0,0,0,0,0,0.4978,0.4996,0.5168,0.5146,0.5153,0.5168,0.5184,0.526,0.5332,0.5256,0.526,0.5277,0.5405,0.5439,0.545,0.5567,0.5504,0.5511,0.5516,0.5519,0.5746,0.5747,0,0,0,0,0,0,0.4961,0.4989,0.5163,0.5172,0.5066,0.5173,0.5191,0.523,0.5331,0.5345,0.5277,0.5278,0.5426,0.5441,0.5456,0.5545,0.5512,0.5519,0.5524,0.5744,0.5746,0.5748,0,0,0,0,0,0,0.4956,0.4976,0.5157,0.5082,0.5106,0.5178,0.5222,0.5233,0.5266,0.5347,0.5361,0.5297,0.5426,0.5445,0.5526,0.5551,0.5523,0.553,0.5743,0.5745,0.5747,0.5722,0,0,0,0,0,0,0.4949,0.4974,0.4998,0.5082,0.511,0.5221,0.5223,0.5237,0.5278,0.5281,0.5369,0.5383,0.5426,0.5514,0.5534,0.5561,0.5536,0.5741,0.5744,0.5746,0.5721,0.5723,0.5725,0,0,0,0,0,0.494,0.4988,0.4999,0.502,0.5141,0.5222,0.5239,0.5285,0.528,0.5307,0.5359,0.538,0.5545,0.5522,0.5544,0.5574,0.5739,0.5743,0.5746,0.572,0.5723,0.5725,0,0,0,0,0,0,0.4909,0.4999,0.5013,0.5088,0.5147,0.523,0.5265,0.5286,0.535,0.535,0.5408,0.5428,0.5504,0.5548,0.5521,0.5648,0.5644,0.5651,0.5616,0.562,0.5621,0.561,0.5542,0,0,0,0,0,0.491,0.4965,0.5042,0.5101,0.513,0.5192,0.5229,0.526,0.5324,0.535,0.5408,0.5472,0.5539,0.5582,0.5648,0.5728,0.5749,0.576,0.5762,0.5763,0.5769,0.5816,0.5822,0.5759,0.5759,0.5759,0,0,0.4914,0.497,0.5002,0.5096,0.5145,0.5204,0.5213,0.5275,0.532,0.5361,0.5439,0.5484,0.5561,0.5641,0.568,0.568,0.5791,0.5767,0.5767,0.5773,0.582,0.5826,0.5831,0.5761,0.5761,0.576,0,0,0.4951,0.4999,0.5053,0.5101,0.5174,0.5216,0.5229,0.5309,0.5339,0.5418,0.545,0.5507,0.562,0.5673,0.5715,0.5773,0.5795,0.5793,0.5804,0.5849,0.5854,0.5859,0.588,0.5887,0.5799,0.5799,0.5799,0,0.4948,0.5034,0.5079,0.5139,0.518,0.5217,0.5274,0.5321,0.5412,0.5442,0.544,0.5582,0.5637,0.5731,0.5744,0.5777,0.5796,0.5783,0.5849,0.5854,0.5859,0.5881,0.5888,0.5798,0.5798,0.5798,0.5799,0,0.5027,0.5087,0.5123,0.5207,0.5253,0.5311,0.5368,0.541,0.5437,0.5479,0.5561,0.5627,0.5707,0.5731,0.576,0.583,0.5828,0.5837,0.5833,0.5864,0.5885,0.5893,0.5797,0.5797,0.5798,0.5798,0,0,0.5049,0.5156,0.5169,0.5208,0.5291,0.534,0.5401,0.5476,0.5511,0.5574,0.5629,0.5724,0.5732,0.578,0.5814,0.5854,0.5897,0.5858,0.5861,0.5863,0.598,0.5973,0.5981,0.5912,0.5914,0.5915,0.5974,0,0.5097,0.5203,0.5246,0.5335,0.5391,0.5428,0.5482,0.554,0.5582,0.564,0.5688,0.5754,0.576,0.5788,0.5829,0.5882,0.5921,0.5879,0.5966,0.5968,0.5945,0.5992,0.5985,0.6037,0.5982,0.5984,0.5985,0,0.5167,0.5227,0.5319,0.5396,0.5422,0.5469,0.5541,0.5594,0.5663,0.5691,0.5744,0.5776,0.5845,0.5837,0.5935,0.5905,0.5944,0.5976,0.5979,0.5989,0.5978,0.6004,0.6055,0.6062,0.5998,0.5997,0.5996,0,0.5173,0.5278,0.5347,0.5379,0.547,0.5503,0.5543,0.561,0.5653,0.5718,0.5746,0.582,0.586,0.5917,0.597,0.5959,0.6063,0.6059,0.6091,0.6089,0.6111,0.6109,0.6168,0.6135,0.6135,0.6135,0.6135,0,0.5223,0.5278,0.5351,0.5393,0.5457,0.5508,0.5571,0.5615,0.5674,0.5728,0.5766,0.5816,0.5882,0.5943,0.5985,0.606,0.6078,0.6104,0.6115,0.6101,0.6098,0.6127,0.6125,0.6137,0.6137,0.6136,0.6136,0,0.5241,0.5291,0.5369,0.5448,0.547,0.5514,0.5583,0.5628,0.5671,0.5739,0.5759,0.5828,0.5901,0.5959,0.6055,0.6083,0.6162,0.6174,0.6138,0.6143,0.6171,0.6168,0.6252,0.6266,0.6223,0.6223,0.6223,0,0.5269,0.5312,0.5395,0.5432,0.5471,0.5531,0.5574,0.5626,0.567,0.5751,0.5787,0.5861,0.5924,0.6039,0.61,0.6175,0.6189,0.6213,0.62,0.6185,0.619,0.6186,0.6192,0.6215,0.6215,0.6215,0.6215,0,0.5313,0.5336,0.5394,0.5462,0.5511,0.5568,0.5626,0.5655,0.5719,0.5766,0.5839,0.5887,0.5984,0.6059,0.6139,0.6185,0.6212,0.6218,0.623,0.6216,0.6193,0.6206,0.6142,0.6216,0.6216,0.6216,0.6216,0.6216,0.5338,0.5378,0.5442,0.5507,0.5555,0.5608,0.5654,0.5702,0.5762,0.5843,0.5871,0.5947,0.6017,0.6127,0.6173,0.6235,0.6237,0.6253,0.6257,0.6261,0.6259,0.6183,0.625,0.625,0.625,0.625,0.625,0,0.5384,0.5427,0.5486,0.5564,0.5615,0.5633,0.5698,0.5741,0.5805,0.5867,0.5926,0.6011,0.6084,0.615,0.6227,0.6264,0.6279,0.6283,0.6281,0.6291,0.6253,0.6235,0.627,0.627,0.627,0.627,0.627,0.627,0.5415,0.5483,0.5514,0.5608,0.5653,0.5724,0.576,0.581,0.5859,0.5951,0.601,0.6052,0.6116,0.6198,0.6266,0.6284,0.6311,0.6312,0.6334,0.6296,0.6294,0.6291,0.6275,0.6317,0.6317,0.6367,0.6367,0.6368]},{"header":{"parameterUnit":"m.s-1","parameterCategory":1,"la1":30.2991,"la2":30.254,"lo1":-89.0895,"lo2":-89.0444,"dy":0.0017,"dx":0.0017,"nx":28,"ny":28,"refTime":"2024-07-27T21:00:00:Z","depth":0,"parameterNumber":3,"parameterNumberName":"V-component_of_WINDS"},"data":[0,0,0,0,0,0,0,0,0,0,0,0,0,0,0,0,0,0,0,0,0,0,0,0,0,0,0,0,0,0,0,0,0,0,0,0,0,0,0,0,0,0,0,0,0,0,0,0,0,0,0,0,0,0,0,0,0,0,2.2164,2.2164,0,2.2138,2.2137,2.2137,2.2154,2.2155,2.2156,2.2157,2.2124,2.2123,2.2121,0,0,0,0,0,0,0,0,0,0,0,0,0,2.2223,2.2222,2.2164,2.2164,2.2163,2.2138,2.2137,2.2137,2.2154,2.2155,2.2156,2.2157,2.2125,2.2123,2.2121,0,0,0,0,0,0,0,0,0,0,0,0,0,2.2197,2.2222,2.2164,2.2169,2.2169,2.2138,2.2137,2.2137,2.2154,2.2155,2.2156,2.2157,2.2125,2.2123,2.2121,2.2081,0,0,2.2113,2.2112,0,0,0,0,0,0,0,0,2.2198,2.2195,2.2168,2.2168,2.2169,2.2151,2.2146,2.2118,2.2154,2.2159,2.2157,2.2158,2.2132,2.2129,2.2121,2.208,2.2078,2.2113,2.2111,2.211,2.211,0,0,0,0,0,0,0,2.22,2.2196,2.2153,2.2168,2.2168,2.217,2.2168,2.2141,2.2139,2.2159,2.216,2.2157,2.2132,2.2123,2.212,2.2078,2.2113,2.2111,2.2109,2.2108,2.2001,2.2,0,0,0,0,0,0,2.2202,2.2197,2.2154,2.2153,2.2187,2.2168,2.2166,2.2155,2.2139,2.2138,2.2156,2.2158,2.2127,2.2123,2.2119,2.2071,2.211,2.2108,2.2107,2.2003,2.2001,2.1999,0,0,0,0,0,0,2.2204,2.2198,2.2155,2.2175,2.217,2.2166,2.2154,2.2154,2.2145,2.2137,2.2136,2.2148,2.2128,2.2123,2.2091,2.207,2.2107,2.2105,2.2004,2.2002,2.2,2.1974,0,0,0,0,0,0,2.2205,2.2199,2.2185,2.2175,2.2169,2.2129,2.2153,2.2153,2.2142,2.2144,2.2129,2.2128,2.2128,2.2094,2.2088,2.2067,2.2103,2.2006,2.2003,2.2001,2.1977,2.1972,2.1967,0,0,0,0,0,2.2207,2.2178,2.2184,2.2179,2.2152,2.2128,2.2124,2.2126,2.214,2.2125,2.212,2.2129,2.2074,2.2091,2.2084,2.2062,2.2007,2.2004,2.2001,2.1979,2.1973,2.1967,0,0,0,0,0,0,2.2184,2.2177,2.2184,2.2151,2.214,2.2131,2.2112,2.2119,2.2103,2.2105,2.2107,2.2104,2.207,2.2063,2.2082,2.2022,2.2042,2.2038,2.2028,2.2022,2.2017,2.2018,2.2101,0,0,0,0,0,2.2176,2.2158,2.2152,2.2123,2.2118,2.2116,2.2105,2.2108,2.2096,2.2091,2.2083,2.2069,2.2049,2.2035,2.2016,2.1977,2.1972,2.1958,2.1953,2.1949,2.1945,2.1921,2.1914,2.1989,2.1989,2.1989,0,0,2.2157,2.2151,2.2139,2.2119,2.211,2.209,2.2112,2.209,2.2074,2.2087,2.2056,2.205,2.2035,2.1999,2.1982,2.1992,2.1923,2.1945,2.1942,2.194,2.1917,2.191,2.1904,2.1987,2.1987,2.1988,0,0,2.2112,2.2107,2.2082,2.2073,2.2061,2.206,2.2054,2.2044,2.2041,2.2011,2.2019,2.2,2.1965,2.1953,2.1943,2.1894,2.19,2.1887,2.186,2.1838,2.1832,2.1826,2.1807,2.18,2.1883,2.1883,2.1883,0,2.209,2.2062,2.2067,2.2045,2.2034,2.2047,2.202,2.2011,2.1993,2.1984,2.1996,2.1952,2.1943,2.1903,2.1891,2.1883,2.1874,2.1888,2.1833,2.1827,2.1822,2.1803,2.1796,2.1881,2.1882,2.1882,2.1882,0,2.2034,2.2014,2.1995,2.1978,2.1966,2.1941,2.1941,2.1928,2.1932,2.1929,2.1896,2.1886,2.1864,2.1855,2.1859,2.1815,2.1822,2.1833,2.1852,2.1814,2.1796,2.1789,2.1879,2.188,2.188,2.1881,0,0,2.1972,2.196,2.1953,2.1945,2.1932,2.1916,2.1891,2.1872,2.1859,2.1846,2.1823,2.1794,2.1804,2.1792,2.1794,2.1774,2.1733,2.1788,2.1787,2.1776,2.1682,2.1672,2.1664,2.1738,2.1737,2.1736,2.1683,0,2.1925,2.1884,2.1888,2.1848,2.1828,2.184,2.1818,2.1807,2.1804,2.1785,2.178,2.1759,2.1775,2.1768,2.1749,2.1742,2.1714,2.1746,2.1714,2.1713,2.1716,2.1655,2.1645,2.1596,2.1676,2.1675,2.1674,0,2.1865,2.1851,2.1809,2.1799,2.1791,2.1771,2.1753,2.1736,2.1723,2.1722,2.1708,2.1713,2.1686,2.1708,2.1668,2.169,2.1678,2.1672,2.167,2.1666,2.169,2.1647,2.158,2.1572,2.1664,2.1665,2.1665,0,2.1822,2.1793,2.1764,2.1757,2.1745,2.173,2.1724,2.1713,2.17,2.1684,2.1675,2.1655,2.1644,2.1627,2.1626,2.1642,2.1585,2.1607,2.1581,2.1581,2.1567,2.1567,2.1495,2.1562,2.1562,2.1562,2.1563,0,2.1768,2.1741,2.1744,2.1726,2.1695,2.17,2.1669,2.1665,2.1654,2.1633,2.1643,2.1622,2.1623,2.1602,2.1601,2.1567,2.1562,2.1558,2.1558,2.1556,2.1556,2.1546,2.1549,2.156,2.1561,2.1561,2.1562,0,2.1714,2.1715,2.1684,2.1676,2.1673,2.165,2.1642,2.1624,2.1622,2.1595,2.1589,2.1585,2.156,2.1558,2.1529,2.1528,2.1487,2.1491,2.1492,2.1492,2.1465,2.1466,2.1381,2.1369,2.1447,2.1446,2.1445,0,2.1678,2.1658,2.1648,2.1636,2.163,2.161,2.1597,2.1601,2.1587,2.1571,2.1553,2.1531,2.1512,2.1472,2.1465,2.1442,2.1445,2.1417,2.1441,2.144,2.1441,2.1442,2.1439,2.1411,2.141,2.1409,2.1409,0,2.1614,2.1616,2.1599,2.1582,2.1568,2.1554,2.1541,2.153,2.1532,2.1515,2.1492,2.1478,2.1449,2.1425,2.1403,2.1394,2.14,2.1402,2.1394,2.1391,2.1391,2.1389,2.1476,2.1403,2.1404,2.1404,2.1404,2.1405,2.1567,2.1549,2.1539,2.152,2.1511,2.1498,2.148,2.1477,2.1457,2.1435,2.1438,2.1411,2.1397,2.1368,2.1358,2.1335,2.1344,2.1334,2.1331,2.1327,2.1324,2.1397,2.1332,2.1332,2.1332,2.1332,2.1332,0,2.1502,2.1496,2.1478,2.1461,2.1445,2.1455,2.1441,2.1426,2.1403,2.1391,2.1373,2.1344,2.1321,2.1312,2.1289,2.1272,2.1274,2.1266,2.1266,2.1263,2.1318,2.1326,2.1264,2.1264,2.1264,2.1264,2.1264,2.1264,2.1466,2.1436,2.1436,2.1401,2.1395,2.137,2.1361,2.1348,2.1338,2.1307,2.1288,2.1284,2.1272,2.1248,2.1226,2.1224,2.1213,2.1203,2.1202,2.1253,2.1259,2.1266,2.1273,2.1201,2.1201,2.1148,2.1148,2.1147]}]]